Anchorage, AK

4:35 AM AKST on February 24, 2017 (GMT -0900)
Ted Stevens Anchorage Int'l Airport

Weather History for PANC - January, 2013

Change the Weather History Date:

Saturday, January 5, 2013

  Actual Average Record
Temperature  
Mean Temperature 28 °F 17 °F  
Max Temperature 30 °F 23 °F 42 °F (1977)
Min Temperature 25 °F 11 °F -34 °F (1975)
Degree Days  
Heating Degree Days 37    
Month to date heating degree days 166  
Since 1 July heating degree days 5177  
Cooling Degree Days 0    
Month to date cooling degree days 0  
Year to date cooling degree days 0  
Moisture  
Dew Point 22 °F    
Average Humidity 74    
Maximum Humidity 81    
Minimum Humidity 66    
Precipitation  
Precipitation T in 0.03 in 0.81 in (1987)
Month to date precipitation T 0.14  
Year to date precipitation T 0.14  
Snow  
Snow T in 0.40 in 7.80 in (1987)
Month to date snowfall 0.1 2.1  
Since 1 July snowfall 25.0 40.2  
Snow Depth 9.00 in    
Sea Level Pressure  
Sea Level Pressure 29.45 in    
Wind  
Wind Speed 4 mph (North)    
Max Wind Speed 8 mph    
Max Gust Speed -    
Visibility 10 miles    
Events      
T = Trace of Precipitation, MM = Missing Value Source: NWS Daily Summary

Daily Weather History Graph

Daily Weather History Graph

Search for Another Location

Airport or City:

Trip Planner

Search our weather history database for the weather conditions in past years. The results will help you decide how hot, cold, wet, or windy it might be!

Date:

Astronomy

Jan. 05, 2013 Rise Set
Actual Time 10:10 AM AKST 4:01 PM AKST
Civil Twilight 9:10 AM AKST 5:01 PM AKST
Nautical Twilight 8:12 AM AKST 5:59 PM AKST
Astronomical Twilight 7:19 AM AKST 6:52 PM AKST
Moon 2:24 AM AKST (1/5) 11:53 AM AKST (1/5)
Length of Visible Light 7h 50m
Length of Day
5h 51m
Last Quarter, 42% of the Moon is Illuminated
Jan 5
Last Quarter
Jan 11
New
Jan 18
First Quarter
Jan 26
Full
Feb 3
Last Quarter

Hourly Weather History & Observations

Time (AKST) Temp. Windchill Dew Point Humidity Pressure Visibility Wind Dir Wind Speed Gust Speed Precip Events Conditions
12:53 AM 26.1 °F 21.9 °F 21.9 °F 84% 29.72 in 10.0 mi NNE 3.5 mph - N/A   Mostly Cloudy
1:53 AM 28.0 °F - 21.9 °F 78% 29.70 in 10.0 mi Calm Calm - N/A   Overcast
3:53 AM 28.0 °F - 21.0 °F 75% 29.65 in 10.0 mi Calm Calm - N/A   Overcast
4:53 AM 28.0 °F 21.7 °F 21.0 °F 75% 29.61 in 10.0 mi North 5.8 mph - N/A   Overcast
5:53 AM 28.0 °F 21.7 °F 21.0 °F 75% 29.58 in 10.0 mi NW 5.8 mph - N/A   Overcast
6:53 AM 27.0 °F 23.0 °F 21.0 °F 78% 29.56 in 10.0 mi WNW 3.5 mph - N/A   Overcast
7:53 AM 28.0 °F 20.0 °F 19.9 °F 72% 29.53 in 10.0 mi NNW 8.1 mph - N/A   Mostly Cloudy
8:53 AM 28.0 °F 20.8 °F 19.9 °F 72% 29.51 in 10.0 mi NNW 6.9 mph - N/A   Overcast
9:53 AM 28.9 °F 22.8 °F 21.0 °F 72% 29.47 in 10.0 mi North 5.8 mph - N/A   Overcast
10:53 AM 28.9 °F 21.9 °F 21.0 °F 72% 29.45 in 10.0 mi North 6.9 mph - N/A   Overcast
11:53 AM 30.0 °F 25.2 °F 23.0 °F 75% 29.44 in 10.0 mi North 4.6 mph - N/A   Overcast
12:53 PM 30.9 °F 26.2 °F 23.0 °F 72% 29.41 in 10.0 mi NNE 4.6 mph - N/A   Overcast
1:53 PM 30.9 °F 25.2 °F 21.9 °F 69% 29.37 in 10.0 mi NNE 5.8 mph - N/A   Overcast
2:53 PM 30.9 °F 26.2 °F 21.9 °F 69% 29.33 in 10.0 mi NE 4.6 mph - N/A   Mostly Cloudy
3:53 PM 30.9 °F 26.2 °F 21.9 °F 69% 29.33 in 10.0 mi NW 4.6 mph - N/A   Overcast
4:53 PM 32.0 °F 27.5 °F 23.0 °F 69% 29.32 in 10.0 mi NNW 4.6 mph - N/A   Overcast
5:53 PM 30.9 °F 25.2 °F 25.0 °F 79% 29.32 in 10.0 mi NNW 5.8 mph - N/A   Overcast
6:53 PM 30.9 °F - 25.0 °F 79% 29.31 in 10.0 mi Calm Calm - N/A   Overcast
7:53 PM 30.0 °F - 24.1 °F 79% 29.31 in 10.0 mi Calm Calm - N/A   Overcast
8:53 PM 32.0 °F - 24.1 °F 73% 29.31 in 10.0 mi Calm Calm - N/A   Overcast
9:53 PM 30.9 °F - 24.1 °F 76% 29.32 in 10.0 mi Calm Calm - N/A   Overcast
10:53 PM 30.0 °F - 23.0 °F 75% 29.32 in 10.0 mi Calm Calm - N/A   Overcast
11:53 PM 30.0 °F - 23.0 °F 75% 29.33 in 10.0 mi Calm Calm - N/A   Overcast